[[{"header":{"parameterUnit":"m.s-1","parameterCategory":1,"la1":30.2991,"la2":30.254,"lo1":-89.0895,"lo2":-89.0444,"dy":0.0017,"dx":0.0017,"nx":28,"ny":28,"refTime":"2025-12-20T03:00:00:Z","depth":0,"parameterNumber":2,"parameterNumberName":"U-component_of_WINDS"},"data":[0,0,0,0,0,0,0,0,0,0,0,0,0,0,0,0,0,0,0,0,0,0,0,0,0,0,0,0,0,0,0,0,0,0,0,0,0,0,0,0,0,0,0,0,0,0,0,0,0,0,0,0,0,0,0,0,0,0,-0.9961,-0.9961,0,-1.0023,-1.0024,-1.0025,-1.0054,-1.0054,-1.0054,-1.0054,-1.0124,-1.0126,-1.0128,0,0,0,0,0,0,0,0,0,0,0,0,0,-0.9871,-0.9872,-0.9961,-0.9961,-0.9962,-1.0023,-1.0024,-1.0025,-1.0054,-1.0054,-1.0054,-1.0054,-1.0123,-1.0126,-1.0128,0,0,0,0,0,0,0,0,0,0,0,0,0,-0.9919,-0.9873,-0.9961,-0.9984,-0.9987,-1.0023,-1.0024,-1.0025,-1.0054,-1.0054,-1.0054,-1.0054,-1.0123,-1.0125,-1.0128,-1.0148,0,0,-1.0137,-1.0138,0,0,0,0,0,0,0,0,-0.9917,-0.9923,-0.998,-0.9982,-0.9986,-1.0031,-1.0018,-1.0067,-1.0054,-1.0029,-1.0054,-1.0054,-1.0093,-1.0099,-1.0111,-1.0151,-1.0154,-1.0137,-1.0139,-1.014,-1.0141,0,0,0,0,0,0,0,-0.9913,-0.992,-0.9986,-0.9981,-0.9984,-0.9993,-1.0,-1.0027,-1.0061,-1.0031,-1.0033,-1.004,-1.0095,-1.0108,-1.0113,-1.0155,-1.0137,-1.014,-1.0141,-1.0143,-1.0214,-1.0214,0,0,0,0,0,0,-0.9905,-0.9917,-0.9984,-0.9988,-0.995,-0.9995,-1.0002,-1.0016,-1.0061,-1.0067,-1.004,-1.0041,-1.0103,-1.0109,-1.0115,-1.0141,-1.014,-1.0143,-1.0145,-1.0214,-1.0214,-1.0214,0,0,0,0,0,0,-0.9903,-0.9911,-0.9981,-0.9953,-0.9963,-0.9996,-1.0012,-1.0018,-1.0031,-1.0067,-1.0074,-1.0047,-1.0103,-1.0111,-1.0139,-1.0143,-1.0144,-1.0147,-1.0214,-1.0214,-1.0214,-1.0192,0,0,0,0,0,0,-0.9901,-0.991,-0.9917,-0.9953,-0.9964,-1.0002,-1.0012,-1.0019,-1.0035,-1.0037,-1.0076,-1.0082,-1.0104,-1.0134,-1.0142,-1.0147,-1.0149,-1.0214,-1.0214,-1.0214,-1.0192,-1.0191,-1.019,0,0,0,0,0,-0.9897,-0.9909,-0.9917,-0.9925,-0.9973,-1.0002,-1.0009,-1.0032,-1.0035,-1.0043,-1.0066,-1.0081,-1.0142,-1.0137,-1.0146,-1.0152,-1.0213,-1.0214,-1.0214,-1.0193,-1.0191,-1.019,0,0,0,0,0,0,-0.9875,-0.9915,-0.9923,-0.9947,-0.9971,-1.0007,-1.0018,-1.003,-1.0055,-1.0056,-1.0086,-1.0095,-1.012,-1.0139,-1.0133,-1.0173,-1.0179,-1.0181,-1.016,-1.0159,-1.0158,-1.0153,-1.0151,0,0,0,0,0,-0.9873,-0.9892,-0.9926,-0.9944,-0.9955,-0.9984,-0.9998,-1.0013,-1.004,-1.0051,-1.0077,-1.0103,-1.0129,-1.0145,-1.017,-1.0195,-1.0204,-1.0204,-1.0203,-1.0202,-1.0203,-1.0218,-1.0218,-1.0216,-1.0216,-1.0216,0,0,-0.9869,-0.9892,-0.9903,-0.994,-0.996,-0.998,-0.9992,-1.0014,-1.003,-1.0055,-1.0082,-1.0102,-1.0134,-1.016,-1.0173,-1.0177,-1.0206,-1.0202,-1.0201,-1.0204,-1.0218,-1.0218,-1.0219,-1.0216,-1.0216,-1.0216,0,0,-0.9871,-0.9891,-0.9907,-0.9927,-0.9956,-0.9976,-0.9979,-1.0014,-1.0027,-1.0054,-1.0073,-1.0093,-1.0136,-1.0158,-1.0175,-1.0184,-1.0198,-1.0192,-1.0187,-1.02,-1.0201,-1.0201,-1.0204,-1.0205,-1.0193,-1.0193,-1.0193,0,-0.9863,-0.9892,-0.9915,-0.9934,-0.995,-0.9971,-0.9989,-1.0008,-1.0045,-1.0056,-1.0059,-1.0113,-1.0136,-1.0167,-1.0169,-1.0182,-1.0188,-1.0188,-1.0198,-1.0199,-1.02,-1.0203,-1.0204,-1.0192,-1.0192,-1.0192,-1.0192,0,-0.9881,-0.9901,-0.9911,-0.9944,-0.9961,-0.9979,-1.0006,-1.002,-1.0034,-1.0053,-1.0081,-1.0109,-1.014,-1.0149,-1.0164,-1.0182,-1.0184,-1.0192,-1.0199,-1.0198,-1.0202,-1.0204,-1.0191,-1.0191,-1.0191,-1.0192,0,0,-0.9872,-0.9915,-0.9919,-0.9933,-0.9967,-0.9984,-1.0004,-1.0032,-1.0044,-1.0069,-1.0087,-1.0122,-1.013,-1.0149,-1.0167,-1.0178,-1.0184,-1.0186,-1.0187,-1.0184,-1.0206,-1.0199,-1.02,-1.0193,-1.0194,-1.0194,-1.0203,0,-0.9879,-0.9913,-0.9933,-0.996,-0.9979,-0.9999,-1.0017,-1.004,-1.0059,-1.0079,-1.01,-1.0124,-1.0133,-1.0144,-1.0157,-1.018,-1.0189,-1.018,-1.0212,-1.0212,-1.0203,-1.0202,-1.0196,-1.0203,-1.0205,-1.0205,-1.0206,0,-0.9892,-0.9914,-0.9942,-0.9972,-0.9981,-0.9996,-1.0023,-1.0042,-1.0069,-1.0082,-1.0102,-1.0119,-1.0142,-1.0146,-1.0179,-1.0172,-1.0187,-1.02,-1.0201,-1.0205,-1.0209,-1.0207,-1.0206,-1.0207,-1.0208,-1.0208,-1.0208,0,-0.9882,-0.9919,-0.994,-0.9952,-0.9989,-0.9999,-1.0015,-1.0042,-1.0057,-1.0081,-1.0092,-1.0119,-1.0135,-1.0156,-1.0181,-1.0181,-1.0211,-1.0217,-1.0223,-1.0222,-1.0229,-1.0228,-1.023,-1.0238,-1.0238,-1.0238,-1.0238,0,-0.9888,-0.9905,-0.9936,-0.9949,-0.9968,-0.9992,-1.001,-1.0028,-1.0052,-1.007,-1.009,-1.0107,-1.0138,-1.0159,-1.0179,-1.0203,-1.021,-1.0222,-1.0227,-1.022,-1.0218,-1.023,-1.023,-1.0238,-1.0238,-1.0238,-1.0238,0,-0.9881,-0.9903,-0.9927,-0.9958,-0.9967,-0.9979,-1.0007,-1.0021,-1.004,-1.0063,-1.007,-1.01,-1.0126,-1.0152,-1.0188,-1.0201,-1.0224,-1.0231,-1.0214,-1.0217,-1.0221,-1.0221,-1.0232,-1.0234,-1.0239,-1.0239,-1.0239,0,-0.9883,-0.9896,-0.9928,-0.994,-0.9955,-0.9975,-0.999,-1.0014,-1.0029,-1.006,-1.0071,-1.0098,-1.012,-1.0161,-1.0187,-1.0215,-1.0222,-1.0224,-1.0227,-1.0219,-1.0223,-1.0221,-1.0223,-1.0223,-1.0223,-1.0223,-1.0223,0,-0.9885,-0.9894,-0.9914,-0.9937,-0.9954,-0.9975,-0.9996,-1.0005,-1.0034,-1.005,-1.0075,-1.0092,-1.0128,-1.0154,-1.0184,-1.0203,-1.0218,-1.0222,-1.0225,-1.0218,-1.0207,-1.0213,-1.0212,-1.0222,-1.0222,-1.0222,-1.0222,-1.0222,-0.9882,-0.9894,-0.9918,-0.9939,-0.9957,-0.9976,-0.999,-1.001,-1.0031,-1.006,-1.0073,-1.0099,-1.0126,-1.0167,-1.0186,-1.0207,-1.0211,-1.0215,-1.0217,-1.0217,-1.0215,-1.0203,-1.0213,-1.0213,-1.0213,-1.0213,-1.0213,0,-0.9885,-0.9901,-0.992,-0.9947,-0.9964,-0.9975,-0.9998,-1.0013,-1.0034,-1.0057,-1.0078,-1.0107,-1.0133,-1.016,-1.0188,-1.02,-1.0208,-1.0207,-1.0206,-1.021,-1.021,-1.0205,-1.02,-1.02,-1.02,-1.02,-1.02,-1.02,-0.9888,-0.9908,-0.992,-0.995,-0.9967,-0.999,-1.0002,-1.002,-1.0039,-1.0069,-1.009,-1.0107,-1.0132,-1.0162,-1.0186,-1.0194,-1.0203,-1.02,-1.021,-1.0209,-1.021,-1.0211,-1.0206,-1.0202,-1.0202,-1.0208,-1.0208,-1.0208]},{"header":{"parameterUnit":"m.s-1","parameterCategory":1,"la1":30.2991,"la2":30.254,"lo1":-89.0895,"lo2":-89.0444,"dy":0.0017,"dx":0.0017,"nx":28,"ny":28,"refTime":"2025-12-20T03:00:00:Z","depth":0,"parameterNumber":3,"parameterNumberName":"V-component_of_WINDS"},"data":[0,0,0,0,0,0,0,0,0,0,0,0,0,0,0,0,0,0,0,0,0,0,0,0,0,0,0,0,0,0,0,0,0,0,0,0,0,0,0,0,0,0,0,0,0,0,0,0,0,0,0,0,0,0,0,0,0,0,2.2863,2.2864,0,2.2948,2.2949,2.295,2.2993,2.2993,2.2993,2.2993,2.3078,2.3081,2.3083,0,0,0,0,0,0,0,0,0,0,0,0,0,2.2739,2.2741,2.2863,2.2864,2.2865,2.2947,2.2949,2.295,2.2993,2.2993,2.2993,2.2993,2.3078,2.308,2.3083,0,0,0,0,0,0,0,0,0,0,0,0,0,2.2805,2.2742,2.2863,2.2897,2.2901,2.2947,2.2949,2.295,2.2993,2.2993,2.2993,2.2993,2.3077,2.308,2.3083,2.3102,0,0,2.3093,2.3095,0,0,0,0,0,0,0,0,2.2802,2.281,2.2891,2.2895,2.2899,2.296,2.2936,2.3001,2.2993,2.2958,2.2993,2.2994,2.3039,2.3045,2.3061,2.3106,2.311,2.3094,2.3096,2.3097,2.3098,0,0,0,0,0,0,0,2.2797,2.2806,2.2896,2.2892,2.2897,2.2908,2.2917,2.2949,2.2997,2.2961,2.2965,2.2974,2.3041,2.3058,2.3063,2.3111,2.3094,2.3097,2.3099,2.31,2.3177,2.3177,0,0,0,0,0,0,2.2787,2.2802,2.2894,2.2899,2.285,2.291,2.2921,2.294,2.2997,2.3005,2.2974,2.2976,2.3052,2.3059,2.3066,2.3093,2.3097,2.31,2.3102,2.3177,2.3177,2.3178,0,0,0,0,0,0,2.2784,2.2795,2.289,2.2852,2.2865,2.2912,2.2934,2.2942,2.2959,2.3006,2.3015,2.2982,2.3052,2.3062,2.3093,2.3097,2.3102,2.3105,2.3177,2.3177,2.3177,2.3146,0,0,0,0,0,0,2.278,2.2793,2.2801,2.2852,2.2867,2.2916,2.2934,2.2944,2.2964,2.2968,2.3016,2.3024,2.3053,2.3088,2.3097,2.3101,2.3107,2.3177,2.3177,2.3177,2.3147,2.3145,2.3143,0,0,0,0,0,2.2776,2.2788,2.2801,2.2812,2.2877,2.2916,2.2925,2.2958,2.2964,2.2972,2.3003,2.3023,2.3095,2.3091,2.3101,2.3107,2.3177,2.3177,2.3177,2.3148,2.3145,2.3143,0,0,0,0,0,0,2.2736,2.2795,2.281,2.2839,2.2872,2.2923,2.2934,2.2954,2.2986,2.2987,2.3027,2.3038,2.3066,2.3089,2.3084,2.3129,2.3138,2.314,2.3112,2.311,2.3108,2.3102,2.311,0,0,0,0,0,2.273,2.2757,2.2808,2.2828,2.2844,2.2886,2.2905,2.2928,2.2963,2.2977,2.301,2.3044,2.3075,2.3094,2.3124,2.3151,2.3162,2.316,2.3158,2.3156,2.3157,2.3175,2.3174,2.3178,2.3178,2.3178,0,0,2.2719,2.2755,2.2769,2.2821,2.285,2.2877,2.2898,2.2925,2.2946,2.2981,2.3014,2.3039,2.3079,2.3109,2.3123,2.3129,2.3159,2.3156,2.3155,2.3157,2.3175,2.3174,2.3174,2.3178,2.3178,2.3178,0,0,2.2713,2.2743,2.2764,2.2792,2.2835,2.2863,2.2868,2.2917,2.2936,2.2969,2.2996,2.3021,2.3073,2.3101,2.3122,2.3128,2.3147,2.3137,2.3127,2.3143,2.3143,2.3143,2.3146,2.3147,2.3138,2.3138,2.3138,0,2.2694,2.2736,2.2772,2.2799,2.2821,2.2855,2.2877,2.2903,2.2953,2.2968,2.2974,2.304,2.307,2.3107,2.3109,2.3124,2.3132,2.3131,2.314,2.3141,2.3141,2.3144,2.3145,2.3136,2.3136,2.3137,2.3137,0,2.2711,2.2739,2.2751,2.28,2.2824,2.2848,2.2888,2.2908,2.2929,2.2956,2.2991,2.3027,2.3067,2.3077,2.3097,2.3118,2.312,2.3133,2.3143,2.3139,2.3142,2.3144,2.3134,2.3135,2.3135,2.3135,0,0,2.2681,2.2751,2.2754,2.2778,2.2828,2.2851,2.2877,2.2916,2.2933,2.2967,2.299,2.3033,2.3046,2.307,2.3094,2.3108,2.3112,2.3119,2.3121,2.3117,2.3137,2.3128,2.3129,2.3125,2.3125,2.3126,2.3134,0,2.2682,2.2731,2.2765,2.28,2.2828,2.2861,2.2884,2.2918,2.2945,2.2972,2.3002,2.3032,2.3046,2.3061,2.3076,2.3108,2.3117,2.3108,2.3147,2.3148,2.3137,2.3131,2.312,2.3127,2.3136,2.3136,2.3136,0,2.269,2.2724,2.2762,2.2812,2.2825,2.2844,2.2884,2.291,2.2949,2.2967,2.2995,2.302,2.3049,2.3057,2.3098,2.3092,2.311,2.3128,2.3129,2.3134,2.3142,2.3136,2.3129,2.313,2.3139,2.3139,2.3139,0,2.2666,2.2721,2.2751,2.277,2.2828,2.2841,2.2866,2.2905,2.2927,2.2962,2.2976,2.3013,2.3034,2.3062,2.3097,2.3099,2.3135,2.3145,2.3151,2.3151,2.3157,2.3157,2.3154,2.3168,2.3168,2.3168,2.3168,0,2.2664,2.2686,2.2741,2.276,2.2786,2.2825,2.285,2.2878,2.2913,2.2938,2.2969,2.2992,2.3036,2.3064,2.3092,2.3122,2.3131,2.3147,2.3154,2.3145,2.3143,2.3157,2.3158,2.3169,2.3168,2.3168,2.3168,0,2.2641,2.2678,2.2714,2.2766,2.278,2.2797,2.2842,2.2862,2.2891,2.2922,2.2932,2.2977,2.3012,2.305,2.3097,2.3116,2.3145,2.3155,2.3132,2.3136,2.3141,2.314,2.3148,2.3151,2.3162,2.3162,2.3162,0,2.2637,2.2655,2.271,2.2729,2.2753,2.2784,2.2807,2.2846,2.2869,2.2916,2.293,2.2968,2.3,2.3054,2.3092,2.3128,2.314,2.314,2.3145,2.3135,2.314,2.3139,2.3142,2.3138,2.3138,2.3137,2.3137,0,2.2627,2.2646,2.2677,2.2716,2.2743,2.2775,2.2809,2.2823,2.2869,2.2893,2.293,2.2955,2.3004,2.3041,2.3083,2.3109,2.3131,2.3135,2.3139,2.3129,2.3116,2.3124,2.3128,2.3135,2.3135,2.3135,2.3135,2.3135,2.2615,2.2633,2.2675,2.2709,2.2739,2.277,2.2792,2.2824,2.2855,2.2899,2.292,2.2957,2.2997,2.3056,2.3081,2.3111,2.3117,2.3122,2.3123,2.3124,2.3122,2.3111,2.3118,2.3118,2.3119,2.3119,2.3119,0,2.2607,2.2636,2.2668,2.2714,2.2742,2.2761,2.28,2.2822,2.2854,2.289,2.2921,2.2964,2.3001,2.3041,2.3081,2.3097,2.3108,2.3106,2.3105,2.3111,2.3114,2.3107,2.3096,2.3096,2.3096,2.3096,2.3096,2.3096,2.2606,2.2639,2.2662,2.271,2.2738,2.2775,2.2796,2.2825,2.2854,2.29,2.2931,2.2958,2.2996,2.3039,2.3073,2.3085,2.3098,2.3093,2.3107,2.3109,2.311,2.3112,2.3106,2.3095,2.3095,2.3102,2.3102,2.3102]}]]